RH
96 97 93 87 87 91 91 89 88 89 87 86 90 90 88 89 88 84 90 94 92 92 91 92 91 91 91 87 70 46 67 63 44 92 88 59 50 54 60 54 48 50 46 41 39 38 32
95 97 96 90 84 89 90 88 89 90 90 90 92 92 94 89 92 91 92 91 93 96 90 90 88 84 90 94 54 48 61 64 73 89 84 57 49 45 52 52 51 42 37 35 32 31 31
97 96 96 94 88 89 90 92 92 87 91 88 88 85 72 84 93 92 91 88 88 94 92 90 90 94 89 69 55 44 53 72 83 84 71 56 46 44 50 50 40 36 43 40 34 32 31
92 96 96 91 90 89 90 93 91 92 90 76 90 76 80 94 92 94 92 90 86 85 89 90 89 97 82 63 57 61 60 59 80 83 65 57 50 51 48 38 35 34 36 45 35 34 32
83 94 96 91 92 90 92 92 90 90 94 88 86 93 94 87 80 84 94 93 92 91 89 88 88 85 82 60 74 44 61 65 64 84 72 62 53 53 46 51 47 46 51 47 41 32 29
80 81 94 97 99 91 92 90 84 70 91 93 92 93 99 97 91 88 81 84 85 86 83 86 88 85 74 79 64 60 45 60 80 80 80 82 85 70 49 48 72 53 50 45 41 26 36
82 81 85 90 92 81 92 90 88 90 91 77 85 89 92 98 99 92 91 88 98 93 98 80 84 74 65 60 60 61 63 66 80 89 92 85 92 91 78 46 44 42 39 40 36 30 32
86 81 82 81 89 89 83 92 88 92 92 73 82 86 90 99 97 96 84 97 79 70 91 73 70 72 73 57 64 67 70 81 88 90 78 98 91 75 59 51 41 41 42 43 36 29 26
86 92 83 81 82 84 62 71 88 93 93 88 79 85 92 96 97 100 99 91 87 66 79 78 75 62 64 61 75 81 81 81 79 76 82 81 70 65 50 45 46 45 46 41 41 36 32
82 89 82 79 69 77 58 57 64 70 82 76 83 89 96 95 94 98 100 97 87 88 87 90 82 67 75 74 93 88 92 78 70 73 70 70 51 58 56 45 40 48 37 36 35 39 45
78 83 89 76 69 65 60 54 49 57 64 77 83 88 99 98 99 94 99 90 89 96 97 85 83 84 88 78 88 92 98 80 71 70 72 67 51 54 46 42 38 39 34 33 33 40 40
80 77 85 86 77 64 62 55 49 52 58 68 90 88 98 100 96 91 96 100 94 100 98 95 94 97 87 91 85 89 93 70 60 58 52 46 36 41 40 34 34 36 33 44 47 48 57
89 79 78 85 86 72 66 54 49 48 56 62 83 96 85 98 95 97 100 98 100 100 90 97 93 82 80 88 85 87 92 88 80 75 73 58 29 23 29 32 26 35 46 60 59 63 62
85 89 76 84 87 86 67 58 52 51 53 56 76 98 92 88 88 98 100 100 100 95 90 78 78 79 89 75 80 81 88 81 59 48 59 68 47 30 23 32 36 39 44 64 64 70 55
82 93 87 79 91 87 80 65 57 60 54 54 70 74 84 65 89 100 99 99 96 86 77 80 73 93 96 80 68 72 75 55 49 48 45 49 48 32 29 24 31 35 47 40 50 50 55
91 96 95 77 92 88 86 71 62 66 56 57 84 76 73 79 88 98 99 94 92 76 68 70 89 86 91 71 66 61 73 55 66 50 47 47 53 39 32 28 26 34 34 46 55 54 53
94 93 97 93 89 85 87 85 68 70 56 61 74 76 88 85 86 99 96 93 92 64 72 89 75 83 69 68 58 62 69 61 57 56 50 50 52 54 38 42 46 39 38 34 46 52 55
90 92 96 98 93 85 88 90 77 72 58 62 85 63 92 80 82 87 91 89 86 89 86 83 51 55 67 70 61 74 75 67 58 51 57 55 64 71 54 40 37 38 40 38 47 45 53
87 92 93 99 99 87 90 91 82 73 72 68 81 69 88 77 81 85 66 76 86 90 79 70 77 65 57 65 72 68 70 60 59 55 58 54 68 79 60 52 48 50 42 39 47 52 56
87 93 93 95 98 96 96 90 87 73 65 78 79 60 63 71 73 70 67 67 74 73 70 61 61 60 66 66 63 70 69 62 54 54 61 48 54 58 62 54 55 58 55 46 44 58 48
86 92 96 95 99 98 100 88 88 71 56 82 72 62 63 55 59 56 52 56 62 61 57 59 56 53 58 66 62 70 64 56 50 49 48 44 48 45 42 39 38 45 50 56 56 49 45
86 90 96 96 98 98 100 88 89 63 58 66 67 63 67 66 53 56 61 52 56 57 55 60 65 54 53 61 59 64 61 55 53 47 50 47 51 36 34 34 36 35 34 36 42 48 52
89 87 93 96 98 99 100 92 89 67 61 73 73 67 54 65 57 54 58 53 51 55 48 50 54 48 50 44 41 43 49 50 49 49 50 46 41 38 34 47 44 46 45 43 36 35 32
88 89 92 96 98 99 98 100 90 81 63 75 75 79 59 60 59 58 51 48 49 46 52 49 49 48 46 39 33 35 41 51 52 57 50 50 53 55 53 52 61 41 42 40 39 40 37
88 90 95 95 94 99 99 99 98 88 60 58 70 72 67 68 63 57 51 55 49 53 57 53 52 51 52 38 52 55 61 51 58 68 63 51 56 67 69 72 58 48 44 44 43 55 50
89 92 92 92 94 96 98 98 99 90 76 68 69 78 78 65 56 48 52 47 57 57 53 49 42 50 46 55 65 69 75 62 66 66 62 58 60 60 90 81 70 48 43 40 39 57 55
90 92 91 93 93 92 94 99 98 99 87 83 73 77 82 80 71 55 54 57 58 63 68 52 44 42 47 67 78 84 78 58 71 72 71 69 70 72 82 82 73 54 49 41 57 52 63
90 91 91 92 92 92 93 96 100 100 93 90 84 76 82 91 85 72 63 59 65 65 74 65 67 62 66 72 78 80 79 70 64 66 75 75 88 84 84 82 81 49 48 54 59 59 56
90 91 92 91 93 95 96 94 99 99 97 93 89 72 79 92 89 84 74 68 58 63 72 70 72 68 67 82 83 83 79 78 76 75 58 69 72 80 74 73 57 55 55 52 54 55 52
Wind_Speed
9 9 8 8 7 7 8 9 8 9 9 10 12 11 9 11 12 13 14 14 15 15 15 15 15 15 13 10 11 9 4 31 36 24 19 13 8 6 6 5 3 4 6 7 12 10 7
10 9 9 10 9 8 9 10 9 9 10 11 13 12 11 12 12 12 12 13 15 16 15 15 16 17 10 15 24 20 11 25 31 26 23 16 7 7 6 5 6 5 5 7 7 9 5
12 10 10 10 10 9 10 10 10 10 11 12 11 12 12 13 14 13 12 13 14 16 14 15 17 18 12 15 8 20 15 16 28 27 13 19 8 6 5 3 4 5 6 7 9 6 6
12 11 10 11 10 10 11 11 11 12 12 13 11 12 13 13 12 14 14 13 14 15 14 16 19 18 6 25 30 14 11 15 22 22 19 21 6 2 2 1 5 2 2 2 5 4 7
12 11 10 11 10 12 13 11 11 12 13 14 13 14 14 17 18 15 13 13 14 16 18 16 12 10 5 9 13 29 20 8 16 21 20 10 5 2 2 3 3 3 3 5 9 7 3
13 12 12 13 11 12 13 10 11 13 14 17 18 19 16 15 15 15 14 12 12 13 15 12 6 7 6 7 12 14 26 19 7 14 14 6 2 3 2 4 6 5 4 5 6 4 7
14 14 14 13 12 13 13 11 12 11 13 17 18 19 17 12 6 6 13 6 5 2 7 4 7 5 3 10 16 17 21 21 16 12 14 11 5 10 10 10 5 4 3 4 8 9 8
15 15 14 14 13 13 12 13 12 13 13 16 18 20 17 11 4 12 15 4 4 7 7 3 2 12 4 11 7 4 21 14 18 20 18 7 17 13 9 6 5 5 6 9 9 4 1
17 16 13 15 13 14 13 13 13 14 15 15 18 18 13 8 5 9 13 13 11 18 5 3 4 9 4 6 6 11 16 11 23 22 23 8 10 12 9 5 8 6 8 5 6 6 4
17 18 15 14 14 13 14 14 14 14 14 15 16 15 10 5 4 5 4 11 12 3 4 3 6 5 4 6 5 3 3 10 9 22 17 5 4 16 11 11 8 8 8 8 3 2 3
17 18 17 16 14 14 15 15 15 14 15 15 15 13 4 10 1 0 8 8 6 3 3 6 5 5 7 3 11 2 2 4 21 20 6 8 13 16 13 10 9 10 6 3 0 1 3
17 16 19 18 17 15 15 17 17 16 16 16 14 9 3 8 6 5 6 5 1 3 4 6 7 11 13 6 3 4 2 1 6 8 4 2 7 9 9 5 7 6 4 7 4 2 2
17 17 17 18 19 17 16 17 18 18 19 18 17 9 14 12 5 18 13 4 3 1 4 7 7 11 12 6 6 6 3 7 7 12 6 5 2 2 5 5 3 5 6 1 1 1 6
17 18 16 18 19 19 17 18 19 20 23 23 23 15 20 25 18 21 14 4 3 4 2 5 13 13 4 14 6 12 5 9 3 10 8 7 9 8 5 6 7 6 7 5 6 4 4
17 18 17 17 17 20 20 18 21 22 24 26 21 3 8 20 17 24 3 3 2 2 5 10 14 5 4 7 5 7 2 6 4 6 6 6 3 2 2 3 6 5 4 4 2 2 2
20 20 16 16 16 19 21 19 22 25 25 27 5 3 4 13 28 12 3 4 3 5 11 6 5 5 6 14 10 8 9 5 7 8 3 5 5 1 2 3 2 4 4 2 2 3 4
19 19 16 16 16 19 20 20 21 24 27 10 3 0 4 29 21 2 2 3 6 12 5 4 6 10 15 11 10 8 5 3 1 5 4 6 4 1 3 4 7 2 1 2 3 4 4
20 18 16 15 15 17 19 20 20 21 24 5 1 0 21 30 2 1 3 4 4 4 6 4 17 23 9 7 5 3 5 2 3 4 6 2 5 4 3 1 1 3 6 5 4 3 1
18 18 16 13 14 15 17 18 18 18 17 7 2 1 15 7 2 2 2 4 2 4 3 7 4 1 4 3 5 3 4 1 5 3 6 5 2 4 3 4 2 4 4 4 4 3 5
17 16 15 13 12 14 15 15 16 16 15 6 1 1 1 2 1 6 4 3 4 2 6 5 4 4 3 6 7 4 3 3 2 2 2 3 3 5 7 4 5 5 5 5 5 4 4
16 16 15 13 12 11 14 13 14 15 16 4 1 2 2 2 2 3 2 2 3 4 5 4 5 3 5 4 3 4 2 3 4 2 3 3 4 2 2 3 3 4 6 8 7 4 6
15 15 15 13 12 10 12 11 12 14 13 1 3 2 3 2 1 4 4 1 3 3 3 4 7 3 7 5 1 5 5 2 2 3 3 3 2 2 2 4 3 3 4 6 5 4 6
15 15 14 13 10 9 9 9 10 12 8 1 1 1 3 4 2 3 2 5 4 6 5 6 10 13 12 1 4 4 4 7 4 4 2 3 3 2 2 3 5 5 5 5 4 4 5
15 14 13 11 10 8 7 7 7 8 10 1 2 2 3 0 1 2 3 3 4 0 7 3 5 6 3 2 3 4 9 10 10 7 3 5 4 2 2 2 1 0 4 6 5 3 2
15 13 13 9 9 8 5 5 5 4 6 5 3 1 3 3 2 5 5 6 5 6 5 4 4 2 1 3 4 4 4 3 6 6 6 3 4 3 3 2 5 2 2 3 3 2 2
15 12 12 9 9 8 5 3 3 3 4 1 9 2 3 5 2 4 4 3 4 3 3 3 2 2 0 3 3 4 4 4 3 2 5 5 6 4 2 3 5 2 2 2 1 2 4
14 12 12 10 9 7 6 3 2 2 2 2 3 5 3 4 2 1 3 5 4 4 4 2 2 2 2 2 2 3 2 2 4 6 4 3 3 5 3 2 6 5 6 0 4 3 3
15 13 12 11 9 8 7 4 2 1 1 1 2 8 1 3 1 3 2 3 2 2 5 4 3 2 2 3 3 3 3 4 2 4 5 6 6 4 3 2 7 2 2 3 3 2 3
18 15 13 12 10 8 6 5 1 1 2 0 1 4 7 4 3 2 4 5 4 2 5 1 2 3 4 4 2 3 2 1 4 3 1 3 5 5 7 5 2 3 5 3 4 4 3
Wind_Direction
326 320 324 313 307 312 309 306 310 306 313 313 305 301 278 260 258 237 229 237 234 221 221 223 222 215 199 211 233 214 309 204 201 205 216 198 188 169 181 195 188 212 251 263 264 279 247
330 309 304 303 302 304 301 305 306 310 309 311 303 284 272 262 256 251 234 228 234 224 217 222 220 209 209 226 230 231 342 202 195 192 202 196 203 181 186 206 178 220 226 258 281 271 266
326 313 301 298 303 304 300 307 309 311 308 305 291 290 281 266 257 249 237 232 230 228 224 224 227 209 221 220 236 255 255 203 201 192 185 198 217 180 176 205 221 242 276 305 256 247 248
318 322 307 300 303 298 295 305 312 314 309 308 297 285 278 273 263 253 244 232 227 230 229 229 221 197 236 235 231 248 211 239 213 209 194 203 186 285 213 285 8 306 73 305 284 247 244
331 328 309 300 309 293 292 299 306 310 314 313 309 296 275 271 261 249 239 235 231 231 224 223 206 176 239 211 200 230 221 237 213 219 204 170 122 209 237 115 15 359 245 242 309 220 161
342 331 320 304 305 296 290 295 300 304 315 317 315 314 303 269 266 239 226 221 233 233 215 196 216 176 239 203 184 192 219 216 177 197 200 156 140 156 173 164 197 204 231 256 242 269 187
343 332 325 308 306 301 290 293 298 303 309 312 317 319 319 311 278 203 180 177 140 244 194 182 188 240 179 182 158 180 180 184 172 200 188 194 177 191 193 190 185 169 247 276 272 262 172
341 335 319 319 309 305 295 293 298 305 304 309 313 315 313 315 277 194 187 232 218 145 156 219 313 239 269 165 148 171 164 181 176 188 184 163 209 194 191 187 203 241 283 287 287 290 216
338 337 327 322 311 308 302 299 303 303 306 309 321 322 310 285 217 199 193 219 194 149 137 176 200 219 233 178 156 163 175 203 179 184 189 189 173 172 186 174 209 224 219 249 231 325 329
335 337 338 321 318 311 307 306 306 310 311 321 330 329 307 234 230 218 204 145 157 103 134 203 199 180 193 160 102 333 133 192 160 183 172 189 152 177 200 214 166 232 219 234 252 39 240
336 332 336 331 324 316 311 308 311 314 323 333 337 333 311 194 124 142 136 143 145 206 124 176 154 129 124 175 122 344 202 240 162 171 139 197 159 175 194 211 175 227 189 164 179 98 28
327 334 329 333 330 320 313 311 310 316 326 335 336 312 248 197 193 198 199 194 222 227 109 197 151 174 163 216 115 135 206 100 128 113 52 151 149 159 193 173 187 151 91 38 45 73 306
317 325 327 329 330 325 317 311 311 317 322 329 329 288 226 208 204 192 189 164 237 335 160 140 166 136 151 137 113 170 123 127 146 144 135 343 191 169 140 111 59 85 82 336 321 318 226
315 316 326 322 329 330 321 315 312 318 321 325 325 285 239 221 232 192 169 211 342 161 170 142 136 116 116 132 138 133 125 118 128 97 124 183 166 182 185 167 170 181 157 163 206 199 239
308 314 315 322 326 329 326 321 319 322 323 330 325 246 218 221 197 176 191 232 79 87 112 122 114 116 127 108 158 110 74 156 133 198 145 151 237 55 96 124 132 190 179 191 138 14 39
305 312 311 316 320 324 328 327 323 326 328 332 290 213 243 186 169 156 249 45 84 102 128 152 113 193 129 139 137 123 183 232 169 198 212 184 108 258 160 101 32 138 166 96 354 198 242
305 305 307 308 319 319 328 331 328 332 336 332 163 51 122 155 145 210 71 69 77 143 144 228 158 141 137 148 158 174 172 83 188 178 159 146 107 214 105 195 175 123 232 89 132 140 187
299 301 305 306 315 314 325 335 334 339 348 347 44 56 164 155 121 75 100 143 105 191 232 277 121 130 162 161 149 101 124 79 296 163 145 174 118 125 195 278 192 197 193 153 133 215 155
294 299 304 305 313 311 321 336 338 343 350 333 349 218 169 212 140 71 91 101 100 170 203 143 113 343 83 125 110 87 96 18 42 103 158 180 109 98 51 359 307 215 197 153 111 105 202
292 297 300 302 308 311 318 334 341 340 340 324 65 29 64 126 329 119 126 73 121 102 24 62 115 132 100 12 31 98 78 42 51 94 60 107 120 165 183 184 142 185 179 173 148 143 200
290 294 295 300 305 309 312 331 341 339 333 212 57 248 191 138 341 117 103 112 111 81 108 357 12 67 126 122 112 112 110 120 44 11 59 88 117 98 87 108 110 175 180 189 191 175 189
286 286 290 289 300 309 311 330 341 345 338 212 142 142 19 108 176 81 12 24 124 130 34 98 108 36 98 109 208 160 132 150 162 44 67 11 131 123 45 19 61 251 255 241 221 212 267
279 279 280 284 290 305 311 321 341 354 357 73 37 333 104 322 23 97 190 170 176 142 34 49 130 98 91 182 38 75 67 69 101 113 88 61 106 83 220 339 320 278 211 208 181 180 171
271 273 270 279 286 294 310 319 342 3 13 5 34 112 85 272 67 169 133 103 122 206 123 35 49 91 150 19 133 65 59 62 60 43 53 125 100 89 173 2 284 222 303 204 154 95 248
264 261 263 265 271 276 297 310 338 2 11 54 13 128 122 105 129 56 98 104 94 54 66 74 24 35 39 76 73 64 4 40 23 29 17 58 113 93 140 202 303 98 345 119 151 47 31
252 249 251 247 253 258 266 296 323 352 11 73 35 71 109 123 248 135 106 140 121 94 43 30 339 308 154 89 91 142 179 153 200 75 36 59 75 108 80 148 216 218 236 257 113 156 358
238 236 235 234 239 242 245 285 297 326 22 37 29 21 98 106 314 80 148 173 121 95 100 131 200 113 53 107 110 143 172 152 164 168 164 77 45 153 162 229 293 250 251 227 117 213 9
222 223 223 222 227 232 230 245 280 256 351 18 121 38 92 105 357 34 64 125 81 107 141 182 95 337 51 84 121 178 130 205 120 166 176 161 141 184 110 167 262 303 22 180 167 66 74
212 211 212 212 214 217 217 216 263 349 190 140 108 72 59 83 149 69 81 60 49 129 125 55 142 160 168 95 77 109 109 77 154 217 110 193 183 181 180 212 175 356 113 135 134 141 183